2024/01/27 00:00:00,52.2, 0.3
2024/01/27 00:10:00,52.1,-0.2
2024/01/27 00:20:00,52.0, 0.1
2024/01/27 00:30:00,52.0,-0.0
2024/01/27 00:40:00,52.0, 0.3
2024/01/27 00:50:00,51.9, 0.3
2024/01/27 01:00:00,51.9, 0.1
2024/01/27 01:10:00,51.8, 0.5
2024/01/27 01:20:00,51.7, 0.3
2024/01/27 01:30:00,51.7,-0.0
2024/01/27 01:40:00,51.8, 0.3
2024/01/27 01:50:00,51.8, 0.4
2024/01/27 02:00:00,51.8, 0.3
2024/01/27 02:10:00,51.9, 0.5
2024/01/27 02:20:00,51.7, 0.3
2024/01/27 02:30:00,51.6, 0.3
2024/01/27 02:40:00,51.6, 0.2
2024/01/27 02:50:00,51.6, 0.1
2024/01/27 03:00:00,51.6,-0.0
2024/01/27 03:10:00,51.6,-0.1
2024/01/27 03:20:00,51.6, 0.2
2024/01/27 03:30:00,51.6, 0.3
2024/01/27 03:40:00,51.8, 0.2
2024/01/27 03:50:00,51.8, 0.1
2024/01/27 04:00:00,51.7, 0.3
2024/01/27 04:10:00,51.7, 0.3
2024/01/27 04:20:00,51.9, 0.2
2024/01/27 04:30:00,51.8, 0.3
2024/01/27 04:40:00,51.7, 0.4
2024/01/27 04:50:00,51.6, 0.4
2024/01/27 05:00:00,51.4, 0.1
2024/01/27 05:10:00,51.4, 0.4
2024/01/27 05:20:00,51.4, 0.5
2024/01/27 05:30:00,51.2, 0.5
2024/01/27 05:40:00,51.1, 0.5
2024/01/27 05:50:00,51.0, 0.4
2024/01/27 06:00:00,50.9, 0.5
2024/01/27 06:10:00,50.9, 0.7
2024/01/27 06:20:00,50.6, 0.8
2024/01/27 06:30:00,50.6, 0.6
2024/01/27 06:40:00,50.6, 0.4
2024/01/27 06:50:00,50.6, 0.7
2024/01/27 07:00:00,50.6, 0.8
2024/01/27 07:10:00,50.4, 1.0
2024/01/27 07:20:00,50.3, 0.7
2024/01/27 07:30:00,50.4, 0.6
2024/01/27 07:40:00,50.4, 0.6
2024/01/27 07:50:00,50.3, 0.7
2024/01/27 08:00:00,50.2, 1.0
2024/01/27 08:10:00,50.1, 1.0
2024/01/27 08:20:00,50.1, 1.0
2024/01/27 08:30:00,50.0, 1.0
2024/01/27 08:40:00,49.9, 1.4
2024/01/27 08:50:00,49.9, 1.6
2024/01/27 09:00:00,49.8, 1.9
2024/01/27 09:10:00,49.7, 2.2
2024/01/27 09:20:00,49.7, 2.3
2024/01/27 09:30:00,49.5, 2.6
2024/01/27 09:40:00,49.3, 2.9
2024/01/27 09:50:00,49.2, 5.4
2024/01/27 10:00:00,48.8, 4.7
2024/01/27 10:10:00,49.1, 4.1
2024/01/27 10:20:00,49.0, 5.0
2024/01/27 10:30:00,49.0, 6.5
2024/01/27 10:40:00,48.8, 7.5
2024/01/27 10:50:00,48.7, 8.4
2024/01/27 11:00:00,48.2,11.1
2024/01/27 11:10:00,47.6,13.9
2024/01/27 11:20:00,47.7,11.3
2024/01/27 11:30:00,47.7,10.6
2024/01/27 11:40:00,47.6,11.1
2024/01/27 11:50:00,47.7, 8.5
2024/01/27 12:00:00,47.9, 7.1
2024/01/27 12:10:00,47.5, 7.3
2024/01/27 12:20:00,47.2, 7.2
2024/01/27 12:30:00,47.3, 6.5
2024/01/27 12:40:00,47.3, 5.5
2024/01/27 12:50:00,47.1, 5.9
2024/01/27 13:00:00,46.7, 7.5
2024/01/27 13:10:00,46.7, 7.0
2024/01/27 13:20:00,46.8, 6.8
2024/01/27 13:30:00,46.4, 6.7
2024/01/27 13:40:00,46.4, 5.3
2024/01/27 13:50:00,46.5, 5.8
2024/01/27 14:00:00,46.5, 5.0
2024/01/27 14:10:00,46.5, 4.3
2024/01/27 14:20:00,46.4, 3.7
2024/01/27 14:30:00,46.1, 3.7
2024/01/27 14:40:00,46.0, 3.9
2024/01/27 14:50:00,45.8, 4.7
2024/01/27 15:00:00,45.2, 5.4
2024/01/27 15:10:00,45.2, 5.8
2024/01/27 15:20:00,44.9, 6.9
2024/01/27 15:30:00,44.9, 5.6
2024/01/27 15:40:00,44.8, 6.2
2024/01/27 15:50:00,45.0, 4.6
2024/01/27 16:00:00,44.9, 3.9
2024/01/27 16:10:00,44.7, 4.4
2024/01/27 16:20:00,44.7, 4.0
2024/01/27 16:30:00,44.9, 4.1
2024/01/27 16:40:00,45.0, 3.7
2024/01/27 16:50:00,44.9, 4.2
2024/01/27 17:00:00,44.5, 4.3
2024/01/27 17:10:00,44.6, 3.8
2024/01/27 17:20:00,44.6, 2.8
2024/01/27 17:30:00,44.6, 2.3
2024/01/27 17:40:00,44.5, 2.3
2024/01/27 17:50:00,44.4, 2.2
2024/01/27 18:00:00,44.4, 2.1
2024/01/27 18:10:00,44.4, 2.0
2024/01/27 18:20:00,44.4, 2.2
2024/01/27 18:30:00,44.4, 2.0
2024/01/27 18:40:00,44.4, 2.1
2024/01/27 18:50:00,44.4, 2.0
2024/01/27 19:00:00,44.3, 2.3
2024/01/27 19:10:00,44.3, 2.1
2024/01/27 19:20:00,44.4, 2.1
2024/01/27 19:30:00,44.4, 2.1
2024/01/27 19:40:00,44.4, 2.0
2024/01/27 19:50:00,44.6, 1.8
2024/01/27 20:00:00,45.0, 2.0
2024/01/27 20:10:00,44.9, 1.9
2024/01/27 20:20:00,44.8, 2.1
2024/01/27 20:30:00,44.7, 2.1
2024/01/27 20:40:00,44.7, 2.2
2024/01/27 20:50:00,44.7, 2.2
2024/01/27 21:00:00,44.7, 1.6
2024/01/27 21:10:00,44.7, 1.7
2024/01/27 21:20:00,44.7, 1.7
2024/01/27 21:30:00,44.7, 1.6
2024/01/27 21:40:00,44.7, 1.5
2024/01/27 21:50:00,44.7, 1.4
2024/01/27 22:00:00,44.7, 1.7
2024/01/27 22:10:00,44.7, 1.2
2024/01/27 22:20:00,44.7, 1.8
2024/01/27 22:30:00,44.6, 1.1
2024/01/27 22:40:00,44.6, 1.4
2024/01/27 22:50:00,44.5, 1.0
2024/01/27 23:00:00,44.5, 1.2
2024/01/27 23:10:00,44.4, 1.5
2024/01/27 23:20:00,44.4, 1.8
2024/01/27 23:30:00,44.4, 1.5
2024/01/27 23:40:00,44.4, 1.4
2024/01/27 23:50:00,44.4, 1.4
